QPF
0.11 0.10 0.08 0.07 0.06 0.04 0.04 0.03 0.03 0.03 0.02 0.01 0.02 0.02 0.02 0.02 0.02 0.02 0.02 0.03 0.03 0.02 0.03 0.02 0.02 0.02 0.02 0.01 0.01 0.01 0.01 0.02 0.02 0.03 0.03 0.03 0.03 0.03
0.10 0.09 0.09 0.08 0.06 0.05 0.04 0.04 0.03 0.03 0.02 0.01 0.01 0.01 0.02 0.01 0.01 0.01 0.01 0.02 0.03 0.03 0.03 0.03 0.03 0.03 0.03 0.03 0.02 0.02 0.02 0.02 0.02 0.02 0.03 0.03 0.04 0.04
0.09 0.09 0.08 0.07 0.06 0.05 0.05 0.05 0.04 0.03 0.02 0.02 0.01 0.01 0.01 0.01 0.01 0.01 0.01 0.01 0.02 0.02 0.03 0.03 0.03 0.03 0.03 0.03 0.03 0.03 0.03 0.02 0.02 0.02 0.03 0.04 0.05 0.06
0.07 0.07 0.07 0.06 0.05 0.05 0.05 0.05 0.04 0.04 0.03 0.03 0.02 0.02 0.02 0.01 0.01 0.01 0.01 0.01 0.01 0.02 0.02 0.02 0.02 0.03 0.03 0.03 0.03 0.03 0.02 0.02 0.02 0.02 0.03 0.03 0.05 0.06
0.05 0.05 0.05 0.04 0.05 0.04 0.04 0.04 0.04 0.04 0.04 0.03 0.03 0.02 0.02 0.02 0.02 0.02 0.01 0.01 0.01 0.01 0.02 0.02 0.02 0.02 0.02 0.02 0.02 0.02 0.02 0.02 0.02 0.02 0.02 0.03 0.04 0.04
0.04 0.04 0.04 0.03 0.03 0.03 0.03 0.04 0.04 0.04 0.04 0.04 0.03 0.03 0.02 0.02 0.02 0.02 0.02 0.01 0.01 0.01 0.01 0.02 0.02 0.02 0.02 0.02 0.02 0.02 0.02 0.01 0.01 0.02 0.02 0.02 0.03 0.03
0.03 0.03 0.03 0.03 0.03 0.03 0.03 0.03 0.03 0.04 0.04 0.04 0.03 0.03 0.02 0.02 0.02 0.02 0.02 0.01 0.01 0.01 0.01 0.01 0.02 0.02 0.02 0.02 0.02 0.02 0.01 0.01 0.01 0.01 0.02 0.02 0.02 0.03
0.03 0.03 0.03 0.03 0.03 0.03 0.03 0.03 0.03 0.04 0.04 0.04 0.03 0.02 0.02 0.02 0.02 0.02 0.02 0.02 0.02 0.01 0.01 0.01 0.01 0.02 0.02 0.02 0.03 0.02 0.02 0.01 0.01 0.01 0.01 0.01 0.02 0.02
0.07 0.06 0.07 0.06 0.05 0.04 0.04 0.04 0.04 0.05 0.04 0.04 0.03 0.02 0.01 0.01 0.02 0.02 0.02 0.02 0.02 0.01 0.01 0.01 0.01 0.01 0.02 0.02 0.03 0.02 0.02 0.02 0.02 0.01 0.01 0.01 0.01 0.01
0.05 0.04 0.04 0.04 0.04 0.05 0.05 0.05 0.05 0.04 0.04 0.03 0.03 0.02 0.02 0.01 0.02 0.02 0.03 0.03 0.03 0.02 0.02 0.02 0.02 0.02 0.02 0.02 0.03 0.02 0.02 0.02 0.02 0.02 0.01 0.01 0.01 0.01
0.05 0.04 0.03 0.02 0.02 0.02 0.02 0.03 0.03 0.04 0.04 0.03 0.03 0.03 0.03 0.03 0.03 0.03 0.04 0.05 0.04 0.03 0.02 0.02 0.02 0.02 0.02 0.02 0.02 0.02 0.02 0.02 0.02 0.02 0.02 0.02 0.01 0.01
0.05 0.04 0.04 0.03 0.02 0.02 0.02 0.02 0.02 0.02 0.02 0.03 0.03 0.03 0.02 0.02 0.03 0.03 0.03 0.04 0.04 0.03 0.02 0.02 0.02 0.02 0.02 0.02 0.02 0.01 0.01 0.01 0.02 0.02 0.02 0.02 0.02 0.01
0.05 0.04 0.04 0.03 0.03 0.03 0.03 0.02 0.02 0.02 0.02 0.02 0.03 0.04 0.04 0.03 0.03 0.04 0.03 0.04 0.04 0.03 0.01 0.01 0.02 0.02 0.02 0.02 0.02 0.01 0.01 0.01 0.02 0.02 0.03 0.02 0.02 0.01
0.05 0.04 0.03 0.03 0.03 0.03 0.03 0.03 0.03 0.03 0.03 0.03 0.04 0.04 0.04 0.03 0.03 0.03 0.03 0.04 0.03 0.03 0.02 0.02 0.03 0.03 0.03 0.02 0.02 0.02 0.02 0.01 0.02 0.02 0.02 0.02 0.02 0.02
0.05 0.04 0.04 0.03 0.03 0.03 0.02 0.02 0.03 0.03 0.03 0.03 0.03 0.03 0.03 0.03 0.03 0.03 0.04 0.04 0.04 0.04 0.04 0.04 0.03 0.03 0.03 0.03 0.02 0.03 0.02 0.02 0.02 0.02 0.03 0.02 0.02 0.02
0.05 0.05 0.05 0.04 0.03 0.03 0.03 0.03 0.03 0.03 0.03 0.04 0.03 0.03 0.03 0.04 0.04 0.04 0.04 0.04 0.05 0.05 0.04 0.04 0.03 0.03 0.03 0.03 0.03 0.03 0.03 0.03 0.02 0.02 0.02 0.02 0.02 0.02
0.05 0.05 0.05 0.04 0.04 0.04 0.03 0.03 0.03 0.04 0.03 0.03 0.03 0.03 0.04 0.04 0.05 0.04 0.04 0.04 0.03 0.04 0.04 0.03 0.03 0.03 0.03 0.03 0.03 0.03 0.03 0.03 0.02 0.02 0.02 0.02 0.02 0.02
0.06 0.06 0.05 0.04 0.04 0.04 0.04 0.04 0.03 0.04 0.04 0.03 0.03 0.03 0.04 0.04 0.04 0.04 0.04 0.03 0.03 0.03 0.03 0.03 0.02 0.03 0.03 0.03 0.03 0.02 0.02 0.02 0.02 0.02 0.02 0.02 0.02 0.02
0.06 0.05 0.04 0.04 0.04 0.03 0.04 0.04 0.03 0.03 0.04 0.04 0.04 0.04 0.04 0.04 0.04 0.03 0.03 0.03 0.03 0.04 0.03 0.03 0.03 0.02 0.03 0.03 0.03 0.02 0.02 0.02 0.02 0.02 0.02 0.02 0.01 0.01
0.04 0.05 0.04 0.04 0.04 0.03 0.03 0.03 0.03 0.03 0.04 0.04 0.05 0.04 0.04 0.03 0.04 0.03 0.03 0.03 0.03 0.03 0.04 0.04 0.03 0.03 0.03 0.03 0.03 0.03 0.02 0.02 0.02 0.02 0.01 0.01 0.01 0.01
0.04 0.04 0.03 0.04 0.04 0.04 0.03 0.03 0.03 0.03 0.03 0.03 0.04 0.04 0.04 0.04 0.03 0.03 0.03 0.03 0.03 0.03 0.03 0.03 0.03 0.03 0.03 0.04 0.04 0.04 0.03 0.02 0.02 0.01 0.01 0.01 0.01 0.01
0.03 0.03 0.03 0.03 0.03 0.04 0.03 0.03 0.03 0.03 0.03 0.03 0.03 0.04 0.04 0.04 0.03 0.03 0.03 0.03 0.03 0.03 0.03 0.03 0.03 0.03 0.03 0.03 0.03 0.03 0.03 0.03 0.02 0.02 0.01 0.01 0.01 0.01
0.03 0.03 0.03 0.04 0.04 0.03 0.03 0.03 0.03 0.03 0.03 0.03 0.03 0.03 0.03 0.04 0.04 0.03 0.03 0.03 0.03 0.02 0.03 0.03 0.03 0.03 0.03 0.03 0.03 0.03 0.02 0.02 0.01 0.01 0.01 0.00 0.00 0.00
MSLP
1017.81 1018.65 1019.43 1020.12 1020.73 1021.25 1021.70 1022.12 1022.53 1022.96 1023.41 1023.90 1024.40 1024.93 1025.45 1025.96 1026.45 1026.92 1027.37 1027.81 1028.25 1028.69 1029.14 1029.59 1030.03 1030.44 1030.83 1031.16 1031.45 1031.68 1031.87 1032.01 1032.13 1032.23 1032.32 1032.41 1032.49 1032.58
1016.89 1017.72 1018.51 1019.23 1019.86 1020.42 1020.92 1021.40 1021.86 1022.33 1022.82 1023.33 1023.86 1024.39 1024.91 1025.42 1025.91 1026.38 1026.84 1027.29 1027.76 1028.24 1028.73 1029.23 1029.72 1030.19 1030.62 1031.01 1031.34 1031.62 1031.84 1032.04 1032.20 1032.36 1032.50 1032.65 1032.80 1032.94
1015.95 1016.76 1017.55 1018.28 1018.95 1019.56 1020.12 1020.65 1021.17 1021.70 1022.23 1022.78 1023.33 1023.87 1024.40 1024.90 1025.38 1025.85 1026.30 1026.77 1027.25 1027.76 1028.29 1028.83 1029.37 1029.89 1030.38 1030.81 1031.19 1031.51 1031.78 1032.02 1032.22 1032.42 1032.60 1032.79 1032.98 1033.17
1015.01 1015.78 1016.55 1017.30 1018.00 1018.66 1019.28 1019.88 1020.46 1021.05 1021.63 1022.22 1022.79 1023.35 1023.88 1024.38 1024.85 1025.31 1025.77 1026.24 1026.74 1027.26 1027.82 1028.40 1028.99 1029.56 1030.10 1030.59 1031.02 1031.39 1031.71 1031.98 1032.22 1032.45 1032.66 1032.87 1033.09 1033.30
1014.05 1014.78 1015.54 1016.30 1017.04 1017.74 1018.42 1019.08 1019.72 1020.35 1020.98 1021.59 1022.19 1022.76 1023.29 1023.80 1024.28 1024.74 1025.20 1025.68 1026.20 1026.75 1027.34 1027.96 1028.59 1029.22 1029.81 1030.36 1030.85 1031.27 1031.64 1031.95 1032.23 1032.48 1032.71 1032.93 1033.16 1033.38
1013.08 1013.77 1014.52 1015.29 1016.05 1016.80 1017.52 1018.22 1018.90 1019.57 1020.22 1020.85 1021.47 1022.05 1022.60 1023.12 1023.61 1024.09 1024.57 1025.08 1025.62 1026.20 1026.83 1027.49 1028.17 1028.85 1029.50 1030.11 1030.66 1031.15 1031.57 1031.93 1032.24 1032.52 1032.76 1033.00 1033.22 1033.44
1012.11 1012.77 1013.51 1014.28 1015.06 1015.83 1016.57 1017.29 1017.99 1018.67 1019.32 1019.96 1020.58 1021.18 1021.74 1022.29 1022.81 1023.33 1023.85 1024.40 1024.98 1025.61 1026.28 1026.99 1027.72 1028.44 1029.16 1029.83 1030.44 1030.99 1031.48 1031.89 1032.25 1032.56 1032.83 1033.07 1033.30 1033.52
1011.15 1011.77 1012.49 1013.26 1014.05 1014.82 1015.57 1016.29 1016.97 1017.64 1018.28 1018.91 1019.53 1020.13 1020.72 1021.30 1021.87 1022.44 1023.02 1023.63 1024.27 1024.95 1025.67 1026.42 1027.20 1027.98 1028.74 1029.48 1030.16 1030.77 1031.32 1031.80 1032.21 1032.57 1032.88 1033.15 1033.39 1033.62
1010.19 1010.78 1011.49 1012.24 1013.02 1013.78 1014.51 1015.20 1015.86 1016.49 1017.11 1017.71 1018.32 1018.93 1019.55 1020.17 1020.80 1021.44 1022.09 1022.76 1023.47 1024.20 1024.97 1025.77 1026.59 1027.41 1028.23 1029.01 1029.76 1030.44 1031.06 1031.62 1032.10 1032.52 1032.88 1033.20 1033.48 1033.74
1009.23 1009.80 1010.48 1011.22 1011.98 1012.71 1013.41 1014.07 1014.68 1015.27 1015.84 1016.42 1017.02 1017.63 1018.28 1018.95 1019.64 1020.35 1021.07 1021.82 1022.58 1023.37 1024.19 1025.02 1025.87 1026.72 1027.57 1028.41 1029.20 1029.96 1030.65 1031.29 1031.86 1032.36 1032.81 1033.20 1033.55 1033.85
1008.26 1008.80 1009.46 1010.17 1010.91 1011.62 1012.28 1012.89 1013.46 1014.01 1014.55 1015.10 1015.69 1016.32 1016.99 1017.70 1018.45 1019.22 1020.01 1020.81 1021.63 1022.46 1023.30 1024.15 1025.02 1025.89 1026.77 1027.63 1028.48 1029.30 1030.07 1030.80 1031.47 1032.08 1032.63 1033.12 1033.56 1033.94
1007.24 1007.76 1008.40 1009.10 1009.81 1010.49 1011.13 1011.71 1012.24 1012.76 1013.27 1013.81 1014.40 1015.04 1015.74 1016.49 1017.28 1018.11 1018.94 1019.79 1020.63 1021.48 1022.33 1023.19 1024.05 1024.93 1025.81 1026.71 1027.60 1028.48 1029.33 1030.15 1030.93 1031.66 1032.33 1032.94 1033.49 1033.98
1006.16 1006.67 1007.29 1007.98 1008.67 1009.34 1009.96 1010.52 1011.05 1011.55 1012.06 1012.60 1013.20 1013.86 1014.59 1015.36 1016.19 1017.04 1017.90 1018.76 1019.62 1020.46 1021.30 1022.14 1023.00 1023.87 1024.76 1025.67 1026.59 1027.53 1028.46 1029.38 1030.27 1031.12 1031.92 1032.66 1033.34 1033.95
1004.96 1005.48 1006.10 1006.79 1007.48 1008.15 1008.77 1009.34 1009.87 1010.39 1010.92 1011.48 1012.10 1012.79 1013.53 1014.34 1015.18 1016.04 1016.91 1017.76 1018.60 1019.43 1020.25 1021.07 1021.90 1022.76 1023.65 1024.58 1025.54 1026.53 1027.54 1028.55 1029.55 1030.51 1031.44 1032.31 1033.11 1033.83
1003.64 1004.19 1004.83 1005.52 1006.23 1006.90 1007.54 1008.14 1008.70 1009.26 1009.82 1010.43 1011.08 1011.80 1012.58 1013.40 1014.25 1015.11 1015.96 1016.80 1017.62 1018.42 1019.21 1020.01 1020.83 1021.68 1022.58 1023.52 1024.52 1025.56 1026.64 1027.73 1028.82 1029.89 1030.92 1031.90 1032.80 1033.63
1002.22 1002.81 1003.48 1004.19 1004.91 1005.61 1006.28 1006.91 1007.52 1008.13 1008.76 1009.41 1010.12 1010.88 1011.68 1012.52 1013.37 1014.23 1015.07 1015.89 1016.69 1017.47 1018.25 1019.03 1019.85 1020.71 1021.62 1022.59 1023.63 1024.72 1025.85 1027.00 1028.16 1029.31 1030.42 1031.47 1032.45 1033.35
1000.77 1001.41 1002.11 1002.84 1003.57 1004.30 1005.00 1005.67 1006.34 1007.01 1007.70 1008.42 1009.18 1009.98 1010.82 1011.68 1012.54 1013.40 1014.23 1015.04 1015.84 1016.61 1017.39 1018.19 1019.02 1019.91 1020.85 1021.86 1022.94 1024.07 1025.24 1026.44 1027.64 1028.83 1029.98 1031.07 1032.09 1033.03
999.40 1000.08 1000.80 1001.54 1002.28 1003.02 1003.74 1004.45 1005.17 1005.90 1006.65 1007.43 1008.25 1009.11 1009.98 1010.87 1011.75 1012.61 1013.46 1014.28 1015.09 1015.89 1016.69 1017.53 1018.41 1019.34 1020.33 1021.39 1022.51 1023.68 1024.88 1026.10 1027.31 1028.51 1029.66 1030.75 1031.77 1032.70
998.23 998.94 999.66 1000.40 1001.13 1001.86 1002.59 1003.32 1004.08 1004.85 1005.66 1006.50 1007.37 1008.27 1009.19 1010.11 1011.01 1011.90 1012.77 1013.63 1014.47 1015.31 1016.18 1017.07 1018.02 1019.01 1020.07 1021.18 1022.35 1023.54 1024.76 1025.98 1027.19 1028.36 1029.48 1030.54 1031.52 1032.40
997.42 998.12 998.83 999.53 1000.23 1000.93 1001.64 1002.38 1003.15 1003.95 1004.80 1005.68 1006.60 1007.54 1008.49 1009.44 1010.38 1011.31 1012.22 1013.11 1014.01 1014.92 1015.85 1016.83 1017.85 1018.92 1020.05 1021.22 1022.42 1023.64 1024.87 1026.08 1027.25 1028.38 1029.45 1030.45 1031.36 1032.20
997.07 997.73 998.38 999.02 999.67 1000.32 1001.00 1001.72 1002.48 1003.29 1004.16 1005.07 1006.01 1006.98 1007.96 1008.94 1009.92 1010.88 1011.83 1012.78 1013.73 1014.71 1015.72 1016.78 1017.88 1019.03 1020.22 1021.44 1022.68 1023.92 1025.15 1026.33 1027.47 1028.55 1029.56 1030.49 1031.34 1032.11
997.24 997.83 998.40 998.96 999.52 1000.12 1000.74 1001.42 1002.16 1002.96 1003.83 1004.74 1005.70 1006.68 1007.68 1008.68 1009.67 1010.66 1011.65 1012.64 1013.66 1014.70 1015.78 1016.91 1018.08 1019.29 1020.54 1021.80 1023.07 1024.32 1025.53 1026.70 1027.80 1028.83 1029.78 1030.65 1031.44 1032.15
997.92 998.42 998.89 999.35 999.83 1000.35 1000.91 1001.55 1002.25 1003.03 1003.87 1004.77 1005.72 1006.70 1007.69 1008.70 1009.70 1010.70 1011.71 1012.74 1013.79 1014.88 1016.01 1017.18 1018.40 1019.66 1020.94 1022.23 1023.51 1024.76 1025.96 1027.10 1028.17 1029.16 1030.08 1030.90 1031.65 1032.32
Thickness
5480 5483 5485 5486 5488 5490 5491 5491 5489 5485 5486 5486 5487 5490 5491 5492 5493 5495 5496 5497 5498 5500 5502 5503 5504 5505 5506 5507 5509 5510 5511 5512 5513 5514 5515 5516 5517 5518
5468 5470 5472 5474 5475 5477 5478 5478 5479 5479 5476 5476 5476 5478 5479 5480 5481 5483 5484 5485 5486 5487 5489 5491 5492 5493 5494 5495 5497 5498 5499 5500 5501 5502 5503 5504 5505 5505
5455 5458 5460 5461 5463 5464 5465 5466 5466 5466 5464 5464 5464 5465 5466 5467 5468 5470 5471 5473 5473 5474 5476 5477 5479 5480 5481 5482 5484 5485 5487 5487 5489 5490 5491 5492 5493 5494
5444 5446 5448 5449 5450 5452 5453 5453 5453 5454 5453 5452 5451 5450 5452 5454 5455 5456 5457 5459 5460 5461 5462 5463 5465 5466 5467 5469 5471 5472 5474 5475 5476 5478 5479 5480 5480 5481
5434 5435 5436 5436 5438 5440 5441 5441 5441 5441 5441 5440 5439 5438 5438 5439 5441 5442 5443 5443 5445 5446 5448 5449 5451 5452 5453 5455 5457 5459 5461 5462 5464 5465 5466 5466 5467 5468
5422 5424 5425 5426 5427 5428 5428 5429 5428 5427 5426 5426 5426 5425 5425 5425 5426 5427 5428 5429 5430 5432 5433 5434 5436 5437 5439 5441 5443 5445 5446 5447 5449 5451 5452 5453 5454 5454
5410 5412 5413 5415 5416 5416 5418 5417 5416 5414 5414 5413 5412 5412 5412 5411 5413 5414 5414 5415 5416 5417 5418 5420 5422 5424 5425 5427 5428 5430 5432 5433 5435 5437 5438 5439 5440 5440
5398 5400 5401 5402 5404 5405 5406 5406 5406 5404 5403 5402 5402 5402 5403 5402 5401 5401 5401 5401 5403 5405 5404 5406 5407 5408 5410 5412 5414 5416 5418 5420 5421 5422 5424 5425 5426 5426
5386 5387 5388 5390 5392 5393 5393 5393 5393 5393 5393 5393 5392 5392 5392 5392 5390 5389 5388 5389 5391 5391 5390 5392 5393 5394 5396 5398 5400 5402 5403 5405 5406 5408 5409 5410 5411 5412
5374 5376 5378 5379 5381 5381 5381 5380 5379 5379 5380 5380 5381 5381 5380 5379 5378 5378 5376 5375 5375 5375 5376 5377 5379 5380 5382 5384 5385 5387 5388 5389 5391 5393 5394 5395 5396 5397
5362 5364 5366 5368 5370 5370 5369 5368 5367 5366 5366 5366 5367 5367 5366 5365 5363 5362 5361 5360 5360 5361 5362 5363 5364 5365 5367 5369 5371 5371 5372 5374 5375 5377 5378 5379 5381 5381
5350 5352 5354 5356 5357 5357 5357 5357 5356 5355 5354 5353 5352 5351 5351 5350 5349 5349 5349 5348 5347 5347 5348 5348 5349 5349 5352 5354 5355 5356 5357 5358 5359 5361 5362 5363 5364 5365
5338 5340 5342 5343 5344 5345 5346 5345 5346 5344 5341 5340 5338 5337 5336 5336 5335 5335 5335 5335 5334 5334 5335 5334 5333 5333 5334 5338 5340 5341 5342 5343 5344 5345 5346 5347 5348 5349
5326 5328 5329 5330 5331 5331 5332 5333 5332 5330 5328 5326 5324 5324 5323 5323 5322 5321 5321 5321 5322 5322 5321 5320 5320 5320 5320 5321 5324 5326 5327 5328 5329 5330 5331 5332 5332 5332
5314 5316 5317 5317 5317 5317 5318 5318 5317 5316 5315 5313 5313 5312 5312 5311 5309 5308 5307 5307 5306 5306 5307 5307 5307 5308 5307 5307 5309 5311 5311 5314 5314 5315 5316 5316 5317 5318
5300 5302 5303 5304 5303 5304 5303 5303 5303 5303 5303 5302 5301 5299 5298 5297 5296 5295 5294 5293 5291 5291 5291 5292 5293 5294 5293 5294 5295 5296 5297 5298 5300 5301 5301 5302 5302 5303
5287 5287 5287 5288 5289 5289 5289 5289 5289 5289 5289 5288 5287 5286 5285 5284 5284 5283 5281 5280 5279 5278 5277 5278 5278 5279 5279 5280 5282 5283 5283 5284 5286 5286 5287 5289 5290 5290
5274 5274 5274 5275 5276 5276 5276 5276 5275 5276 5276 5275 5275 5275 5274 5273 5272 5270 5269 5269 5268 5267 5267 5266 5265 5265 5265 5267 5269 5271 5271 5271 5272 5273 5273 5275 5278 5278
5260 5260 5261 5262 5263 5264 5263 5263 5263 5263 5263 5262 5262 5262 5262 5261 5260 5259 5258 5258 5257 5256 5255 5255 5254 5254 5254 5256 5258 5258 5259 5259 5259 5260 5260 5262 5264 5267
5248 5248 5249 5250 5250 5251 5251 5251 5250 5250 5250 5250 5250 5250 5250 5250 5249 5248 5248 5247 5246 5246 5245 5244 5244 5244 5244 5245 5246 5247 5246 5246 5247 5248 5249 5250 5252 5254
5235 5236 5236 5237 5237 5238 5238 5238 5238 5238 5238 5238 5238 5239 5239 5239 5239 5238 5238 5238 5237 5236 5236 5235 5235 5234 5233 5233 5234 5236 5236 5234 5235 5236 5237 5238 5240 5242
5221 5222 5223 5224 5224 5225 5226 5226 5226 5227 5227 5228 5228 5229 5229 5229 5229 5228 5228 5227 5227 5227 5226 5224 5224 5223 5222 5222 5223 5225 5225 5225 5225 5225 5225 5226 5226 5229
5207 5208 5210 5211 5212 5213 5214 5215 5216 5216 5217 5218 5218 5218 5219 5218 5218 5218 5218 5217 5216 5215 5214 5213 5213 5212 5211 5211 5211 5213 5214 5215 5215 5215 5216 5217 5217 5219